CAPE
92 184 328 462 254 282 841 1069 1451 1894 2360 2242 2224 2254 2105 2263 2105 1852 2205 1725 1724 1582 1276 1024 1027 1268 1270 1192 1121 1152 1250 1414 796
117 378 478 565 890 802 1022 1253 1579 2342 2352 2545 2585 2499 2652 2438 2473 2044 2170 1865 1615 1549 1471 1041 1281 1204 1152 1271 1211 1412 1394 1385 938
178 179 182 480 836 1039 1215 1237 1913 2831 2653 1409 2 2214 2520 2611 2394 2189 2264 1881 1942 1614 1546 1567 1492 1661 1521 1238 1445 1298 1017 1006 1376
211 333 365 505 746 964 854 1302 1881 1924 1886 2227 2316 2666 2463 2372 2566 2681 2445 2438 2189 1965 1724 1752 1457 1257 1407 1553 1321 1244 1383 1185 854
269 403 514 713 946 836 1138 916 566 722 291 824 1183 1839 2194 2060 2006 2099 1975 2015 2084 1899 1759 1769 1519 1363 1306 1328 1417 1243 1437 1388 1154
192 598 602 876 2279 2027 1549 1105 336 278 22 61 264 3 115 92 800 64 0 21 35 49 596 1349 1320 1155 1129 1140 1216 1293 1227 1198 1214
192 649 776 2532 1690 765 538 404 371 385 303 239 149 226 152 83 234 245 449 408 285 381 422 315 74 280 875 1056 1056 1089 1274 1229 1089
163 112 2386 1659 842 633 743 516 473 226 249 281 215 364 346 380 400 343 212 190 147 86 104 95 130 267 258 293 385 436 830 1222 1080
20 51 1523 1198 997 928 882 821 552 480 386 408 361 186 124 168 155 41 4 0 0 0 0 0 0 0 3 45 264 2 0 0 0
0 11 911 893 847 867 725 740 637 408 368 292 169 96 49 133 14 9 0 0 0 0 0 0 0 3 3 0 0 12 0 0 0
0 349 863 864 843 825 628 608 251 225 164 160 54 0 24 2 0 0 0 0 0 0 0 0 0 0 0 0 3 0 0 0 0
115 471 780 738 794 663 372 253 208 27 0 2 0 3 0 0 0 0 0 0 0 0 0 0 0 0 0 0 0 0 0 0 0
895 379 601 556 343 171 81 18 0 0 0 0 0 0 0 0 0 0 0 0 0 0 0 0 0 0 0 0 0 0 0 0 0
518 209 377 215 236 99 15 0 0 0 0 0 0 0 0 0 0 0 0 0 0 4 1 0 0 2 11 17 4 12 0 0 0
339 346 332 54 28 0 0 0 0 0 0 0 0 0 0 0 0 0 1 6 7 4 5 14 19 13 14 20 11 0 0 0 0
268 176 272 175 78 0 0 0 0 0 0 0 0 0 0 0 0 1 0 1 0 0 0 0 0 0 0 0 0 0 0 0 0
291 256 109 162 4 0 0 0 0 0 0 0 0 0 0 0 0 0 2 0 0 0 2 0 0 0 1 1 1 0 0 0 0
301 179 55 8 12 0 0 0 0 0 0 0 0 0 0 0 0 0 0 0 3 6 2 0 0 0 1 0 0 0 0 0 0
71 3 7 1 0 0 0 0 0 0 0 0 0 0 0 0 0 0 0 0 0 0 0 0 0 0 0 0 0 0 0 0 0
0 0 0 0 0 0 0 0 0 0 0 0 0 0 0 0 0 0 0 0 0 0 0 0 0 0 0 0 0 0 0 0 0
CIN
-61 -68 -72 -64 -93 -84 -66 -48 -69 -60 -65 -50 -37 -45 -53 -53 -44 -67 -45 -65 -60 -79 -79 -90 -79 -57 -50 -51 -43 -41 -18 -21 -58
-42 -38 -49 -40 -67 -69 -56 -41 -71 -75 -67 -41 -23 -44 -39 -31 -48 -48 -51 -63 -91 -95 -94 -113 -75 -69 -64 -39 -33 -21 -19 -24 -48
-42 -38 -49 -36 -34 -28 -37 -43 -58 -47 -46 -137 -104 -58 -49 -38 -46 -43 -32 -50 -29 -35 -61 -58 -62 -41 -40 -41 -28 -27 -37 -35 -29
-59 -26 -46 -47 -39 -44 -60 -94 -65 -69 -92 -89 -77 -62 -60 -51 -33 -25 -18 -18 -24 -21 -29 -23 -30 -39 -30 -25 -27 -32 -30 -33 -40
-65 -39 -54 -55 -45 -72 -200 -207 -310 -237 -274 -188 -141 -85 -57 -58 -36 -17 -15 -9 -9 -15 -17 -19 -27 -29 -25 -23 -22 -26 -20 -24 -17
-154 -49 -64 -62 -140 -170 -193 -235 -315 -393 -393 -335 -268 -475 -325 -356 -173 -330 -0 -237 -332 -315 -104 -19 -16 -27 -31 -32 -29 -28 -34 -34 -30
-352 -138 -80 -154 -200 -252 -329 -332 -334 -316 -310 -310 -333 -296 -317 -330 -256 -236 -163 -161 -179 -139 -118 -149 -264 -159 -34 -23 -25 -32 -35 -35 -37
-477 -401 -152 -262 -360 -344 -291 -338 -344 -368 -353 -304 -312 -261 -254 -233 -208 -193 -225 -228 -252 -283 -251 -251 -220 -149 -150 -117 -66 -105 -35 -22 -23
-200 -369 -201 -348 -353 -325 -233 -252 -285 -297 -292 -257 -264 -298 -315 -287 -279 -333 -223 -0 -0 -0 -0 -1 -0 -0 -142 -221 -105 -222 -0 -0 -45
-0 -381 -195 -356 -322 -291 -265 -233 -243 -274 -281 -273 -280 -293 -288 -273 -283 -272 -0 -0 -0 -0 -0 -0 -0 -13 -18 -0 -0 -273 -0 -0 -0
-0 -224 -318 -318 -318 -278 -267 -258 -352 -323 -279 -281 -161 -0 -343 -68 -0 -0 -0 -0 -0 -0 -6 -0 -0 -0 -0 -0 -7 -0 -0 -0 -0
-306 -61 -349 -280 -266 -254 -349 -368 -344 -383 -52 -60 -0 -64 -0 -0 -0 -0 -0 -0 -0 -0 -0 -0 -0 -0 -0 -0 -0 -0 -0 -0 -0
-219 -145 -212 -320 -384 -407 -444 -401 -0 -0 -0 -0 -0 -0 -0 -0 -0 -0 -0 -0 -1 -0 -0 -0 -0 -0 -0 -2 -0 -0 -0 -0 -0
-254 -305 -329 -337 -345 -372 -267 -0 -0 -0 -0 -0 -0 -0 -0 -0 -0 -0 -3 -0 -0 -9 -2 -0 -0 -44 -44 -16 -28 -22 -0 -0 -0
-378 -369 -356 -419 -459 -0 -0 -0 -0 -0 -0 -0 -0 -0 -0 -0 -0 -0 -2 -11 -12 -19 -19 -17 -7 -17 -21 -21 -15 -0 -0 -0 -0
-404 -434 -377 -395 -416 -0 -0 -0 -0 -0 -0 -0 -0 -0 -0 -0 -0 -4 -0 -2 -1 -0 -0 -0 -0 -0 -0 -0 -18 -0 -0 -0 -0
-387 -369 -363 -294 -383 -0 -0 -0 -0 -0 -0 -0 -0 -0 -0 -0 -0 -2 -2 -0 -0 -0 -5 -0 -0 -10 -6 -8 -5 -0 -0 -0 -0
-272 -281 -309 -194 -251 -0 -0 -0 -0 -0 -0 -0 -0 -0 -0 -4 -0 -0 -0 -0 -10 -10 -8 -0 -0 -0 -11 -0 -0 -0 -0 -0 -0
-172 -118 -115 -62 -0 -0 -0 -0 -0 -0 -0 -0 -0 -0 -0 -0 -0 -0 -0 -0 -0 -0 -0 -0 -0 -0 -0 -0 -0 -0 -0 -0 -0
-0 -0 -0 -0 -0 -0 -0 -0 -0 -0 -0 -0 -0 -0 -0 -0 -0 -0 -0 -0 -0 -0 -0 -0 -0 -0 -0 -0 -0 -0 -0 -0 -0
Wind_Speed
12 16 12 11 13 13 10 13 14 13 9 8 8 9 8 6 8 5 4 5 5 4 5 5 6 6 6 6 6 6 6 4 4
10 15 12 13 12 11 10 13 9 13 9 7 3 8 7 7 6 5 5 6 5 4 5 4 5 6 6 6 6 6 5 4 5
9 9 10 11 12 10 7 10 9 15 11 19 18 9 7 6 6 5 4 1 1 2 3 5 6 6 6 6 6 6 6 5 5
11 9 10 9 8 8 8 8 5 11 8 11 7 8 6 5 3 4 3 1 0 1 3 2 2 4 5 6 6 6 6 6 6
12 10 10 9 10 10 16 6 8 9 10 9 7 7 8 7 5 3 4 3 3 2 2 2 1 1 3 3 4 5 6 6 6
13 9 12 9 14 15 15 13 6 5 7 7 7 7 8 7 7 7 6 6 6 6 5 3 2 3 3 4 5 5 6 6 6
14 8 13 15 12 13 13 12 10 9 8 7 8 8 8 8 7 7 6 6 6 6 6 5 5 5 3 4 5 6 6 6 6
17 16 15 14 11 7 7 11 10 9 8 8 8 8 7 7 7 7 7 7 7 7 7 6 6 6 6 6 4 2 4 5 5
8 18 11 18 16 10 7 8 8 9 8 7 8 7 6 5 6 6 5 5 5 5 5 5 5 6 5 6 4 7 7 5 4
24 20 14 18 13 10 9 8 8 8 8 7 7 6 4 5 5 5 4 4 5 5 6 5 5 5 5 6 6 9 5 7 3
22 16 19 16 13 11 10 7 9 8 7 7 6 4 6 7 8 7 7 7 6 6 5 6 5 6 7 6 6 8 10 11 6
13 17 19 14 10 11 11 12 8 8 7 6 8 7 7 6 6 6 5 5 5 3 4 4 5 5 6 6 6 9 11 8 6
9 7 15 14 16 16 14 9 9 8 7 9 7 6 6 6 6 4 4 4 5 3 2 4 4 6 6 7 5 8 9 6 3
13 11 17 15 13 12 9 9 8 9 9 7 5 5 5 5 3 3 3 3 2 4 5 5 6 6 5 5 5 5 12 16 6
18 17 16 14 13 9 8 6 8 10 8 5 6 5 6 5 5 3 3 4 4 5 5 5 4 5 4 4 6 16 15 15 12
13 13 10 11 11 11 9 9 9 9 5 7 7 6 4 3 3 2 2 3 4 3 4 4 4 3 4 4 5 7 12 11 11
8 9 8 7 12 12 9 7 8 8 7 6 3 3 3 2 2 2 3 3 3 4 2 3 4 4 4 5 5 6 7 7 8
6 7 6 7 10 9 8 8 8 7 6 5 3 2 3 2 2 5 4 3 2 2 1 3 1 3 3 4 4 6 6 6 6
7 9 8 8 10 10 9 8 7 6 6 5 3 2 2 1 1 3 2 1 2 5 8 2 10 7 6 1 3 4 9 13 13
11 9 9 9 8 8 8 7 7 6 7 6 6 5 4 2 4 4 3 3 4 3 6 10 11 11 7 3 2 7 9 13 13
Wind_Direction
157 146 149 159 159 176 179 182 168 161 159 167 178 183 201 199 200 192 207 211 217 215 203 209 194 202 205 207 206 203 208 201 217
158 159 165 172 172 182 187 181 170 158 156 174 205 191 182 206 214 184 212 238 212 211 205 223 199 187 200 217 215 207 202 216 217
168 160 155 154 160 163 148 156 143 137 178 122 220 244 186 182 206 182 175 134 266 265 209 230 186 187 199 219 215 207 207 216 233
173 164 157 163 156 154 126 82 68 118 111 141 170 117 110 119 130 114 110 96 99 72 352 38 149 215 219 213 228 222 209 216 228
171 169 159 151 148 122 118 138 191 115 116 123 136 128 138 145 130 121 115 69 50 51 51 40 270 268 264 255 258 242 222 227 236
283 163 147 146 107 117 125 121 162 128 114 125 127 112 96 78 66 67 70 60 60 48 30 12 322 261 256 262 264 260 257 237 235
340 283 148 121 122 128 139 139 140 117 103 88 83 78 72 66 60 57 47 47 40 29 21 24 3 360 318 269 260 260 251 239 243
343 324 125 127 120 99 112 108 103 98 89 80 78 78 77 77 71 55 47 38 28 17 12 1 356 352 347 342 330 314 283 267 259
309 289 204 133 128 120 121 110 114 111 105 102 91 88 86 88 83 72 54 32 14 2 343 333 337 332 329 332 331 27 9 12 342
217 252 186 127 122 122 135 131 116 108 107 105 103 107 109 103 93 78 60 26 7 356 350 351 340 325 323 317 316 316 327 303 279
211 220 140 136 145 142 146 116 111 118 108 114 115 111 78 61 60 53 35 30 25 9 0 1 351 340 347 358 8 30 9 358 341
214 204 132 148 155 152 119 123 120 108 102 98 80 74 78 71 67 49 35 19 354 344 7 347 338 347 338 336 327 334 331 342 326
187 182 138 118 114 112 108 107 102 98 96 88 79 78 85 59 44 40 16 342 326 328 358 314 301 299 295 287 308 311 344 16 334
137 114 116 113 106 110 107 104 104 94 93 84 85 67 74 82 45 358 23 22 318 306 315 310 295 283 281 306 308 7 23 10 352
124 118 107 103 103 107 97 90 94 94 90 95 74 62 65 41 36 3 5 355 344 340 309 306 337 0 358 352 8 53 24 20 8
103 114 116 117 117 107 90 84 88 101 102 79 66 62 60 29 358 48 4 9 351 344 14 22 355 10 4 355 5 30 8 350 340
100 108 106 107 106 108 108 106 95 102 91 88 99 67 33 294 255 254 36 19 351 356 6 354 352 3 9 360 39 7 353 347 340
133 120 117 101 104 114 111 99 92 99 105 89 56 139 255 307 36 81 45 11 356 351 297 193 44 17 23 30 7 345 316 305 325
107 96 93 95 104 116 115 118 122 134 144 155 183 308 132 241 211 138 167 149 303 254 236 10 140 124 78 95 44 351 3 345 337
112 108 106 107 117 119 125 134 151 187 177 192 195 196 235 248 206 195 186 201 216 253 39 111 130 125 137 120 60 37 8 4 352